Theta_e
307 307 307 308 309 309 309 309 309 310 310 310 310 310 311 313 314 319 319 321 322 321 318 322 321 321 328 331 332 333 338 342 340 344 344 345 345 340 339 342 340 338 340 338 338
307 307 308 308 310 310 310 310 310 310 310 311 310 310 311 312 318 322 322 323 321 317 318 322 323 327 332 334 333 335 336 341 337 338 345 344 343 342 344 343 343 339 336 334 330
308 308 308 309 310 311 310 310 310 310 311 311 310 311 312 316 325 325 322 324 318 319 324 328 327 331 333 332 337 339 342 339 340 343 342 342 341 339 342 343 341 338 331 335 329
308 308 309 310 311 311 311 310 310 310 311 311 311 311 314 322 323 323 325 322 319 321 325 331 331 333 334 335 335 342 342 341 339 343 343 342 339 338 338 337 335 328 327 327 325
308 308 309 310 310 310 311 311 311 311 312 312 312 313 318 322 322 322 321 320 319 320 328 331 332 332 334 334 333 338 344 344 342 341 340 338 339 339 336 331 326 325 325 325 325
309 309 310 310 311 311 312 312 313 312 313 313 312 314 325 323 325 323 320 319 320 321 329 329 332 332 334 336 335 335 342 342 340 339 337 338 338 338 336 330 327 325 325 325 325
309 309 310 311 312 312 313 313 314 313 313 313 313 315 323 322 323 323 321 320 321 322 320 324 332 333 333 337 336 337 338 336 336 342 339 337 341 340 334 330 328 326 324 325 324
310 309 310 311 313 313 314 315 315 315 315 314 317 318 320 325 324 320 320 322 324 322 325 331 333 330 333 334 332 337 335 337 331 342 339 340 345 339 334 332 330 326 324 324 323
311 309 311 312 313 314 316 317 317 317 317 317 323 324 322 325 325 324 323 324 323 322 331 334 333 331 330 333 335 334 336 337 339 335 339 340 342 339 334 333 332 325 324 325 324
311 310 311 313 314 315 317 318 318 319 323 324 324 320 322 324 324 324 325 325 321 328 331 331 322 329 332 331 335 336 337 337 339 338 340 340 342 339 337 336 334 329 326 326 325
312 311 311 313 314 315 317 317 321 322 324 319 319 317 319 325 326 324 324 323 320 318 318 319 329 331 329 333 333 334 334 338 335 334 337 340 340 341 338 336 337 333 330 329 327
313 311 312 313 315 316 318 315 323 322 322 322 323 322 321 323 324 323 323 322 321 320 319 321 331 331 332 335 336 336 337 337 338 336 336 338 341 337 335 334 335 333 332 330 329
313 312 313 314 315 318 317 321 321 319 320 322 324 324 324 323 323 323 320 320 321 320 323 326 329 333 333 333 334 333 335 337 338 336 334 334 336 337 333 331 330 328 327 329 328
315 314 313 313 320 317 319 321 317 320 322 324 326 326 324 320 322 321 320 319 319 319 326 330 329 333 333 335 332 333 333 337 336 337 340 334 336 338 337 332 331 330 329 328 328
316 314 313 313 314 315 322 319 322 321 329 329 324 324 320 322 322 322 320 319 320 329 328 330 330 330 331 333 331 331 330 336 336 335 333 332 332 334 335 334 331 328 325 324 323
316 313 312 314 316 321 319 320 323 323 332 330 323 321 322 322 322 327 325 325 323 331 330 330 331 332 332 331 331 330 332 327 326 327 331 332 330 329 333 334 332 330 327 326 323
314 312 311 312 317 318 318 322 323 326 327 335 327 325 322 332 329 331 330 329 330 331 330 329 331 335 331 329 327 321 321 323 325 333 336 331 326 327 328 330 330 329 328 326 324
313 311 311 313 315 315 323 326 332 330 335 334 335 333 324 334 333 333 332 330 329 328 329 332 333 331 327 329 332 327 321 323 329 336 335 330 334 328 327 328 326 327 327 325 324
312 316 315 315 316 321 323 332 333 334 335 336 333 331 331 331 334 334 331 331 327 327 330 331 332 329 327 325 326 329 329 323 330 328 330 332 331 327 327 328 328 326 324 322 321
314 320 322 316 317 323 323 328 334 335 335 334 335 333 332 330 334 335 331 327 328 325 326 328 331 329 328 325 324 326 325 325 323 331 335 333 331 328 323 327 328 327 325 322 320
320 318 323 318 322 319 324 327 332 333 333 333 333 331 328 332 335 331 330 326 325 324 323 324 327 330 327 327 326 324 325 327 324 326 331 335 332 322 320 324 327 326 323 322 320
326 321 328 321 318 323 327 332 332 333 326 328 327 329 328 333 333 327 327 327 328 323 327 325 326 329 328 326 323 321 324 325 326 331 326 324 326 318 317 316 320 321 320 321 320
324 327 327 321 319 323 329 333 333 330 327 327 327 327 329 329 329 330 326 326 330 330 331 329 327 332 332 323 322 319 318 323 319 321 326 325 323 317 315 315 313 313 313 314 315
323 328 317 317 321 329 333 333 334 331 326 326 327 327 329 332 329 330 328 333 333 333 331 325 324 329 328 325 322 319 320 319 318 319 322 321 323 320 319 315 315 317 314 314 316
324 329 320 319 323 329 330 332 330 329 326 324 326 327 328 333 333 335 331 332 332 332 326 321 324 324 323 319 319 321 323 321 318 318 320 322 324 321 322 322 322 321 320 319 317
328 334 329 328 329 331 330 331 330 329 327 328 327 328 328 331 331 334 333 334 334 331 328 322 325 324 323 324 325 327 326 326 327 326 323 324 326 320 322 322 322 320 319 321 320
336 334 327 331 332 332 332 333 331 328 327 327 327 328 329 330 327 326 325 327 330 332 330 327 329 329 333 329 325 328 327 328 327 327 325 327 327 325 324 323 322 320 319 319 319
Wind_Speed
15 13 12 11 10 10 10 9 9 7 9 10 11 12 13 14 13 2 4 3 3 6 5 5 6 9 5 4 5 4 5 2 3 5 3 9 5 3 3 6 4 3 4 13 23
16 14 13 12 11 10 10 9 8 8 10 11 12 13 13 17 5 5 4 4 5 8 4 3 1 9 3 4 3 4 4 3 6 5 6 8 5 7 5 8 6 12 14 19 20
17 15 13 11 11 10 10 9 9 9 10 12 13 13 16 8 1 5 9 6 8 9 3 7 13 3 6 6 1 3 4 6 12 9 11 6 9 4 13 3 5 13 13 21 16
18 16 13 12 11 10 10 9 9 10 11 12 13 13 12 1 3 1 12 12 12 9 7 12 4 4 5 4 3 6 4 7 4 9 7 4 8 4 2 4 11 6 13 16 16
17 15 12 12 12 11 10 9 10 11 11 12 13 14 3 2 6 8 14 16 13 9 9 5 4 5 4 5 2 5 3 5 10 12 11 9 7 6 8 8 14 14 10 12 14
17 15 12 12 12 12 10 10 10 11 10 11 12 10 2 2 3 12 16 17 12 10 12 6 3 4 6 4 5 4 7 4 8 11 7 12 5 2 6 9 8 12 8 9 14
17 15 13 13 13 11 10 10 11 11 10 10 10 5 1 6 2 15 13 9 13 15 4 6 12 6 4 4 4 12 6 3 3 3 3 11 3 5 6 7 6 9 7 4 9
17 14 13 13 13 12 11 11 12 13 10 8 9 0 4 6 3 14 13 11 10 14 6 13 16 10 5 4 5 4 5 5 3 5 5 4 1 7 8 10 7 7 6 7 11
16 14 13 13 13 13 13 13 14 11 8 6 1 1 6 4 4 9 11 7 3 5 8 18 6 4 3 5 3 5 3 4 3 4 3 2 4 10 9 7 8 8 7 2 6
16 13 12 12 13 14 15 17 10 5 4 4 1 2 3 2 4 4 10 15 6 10 5 2 4 4 3 3 4 6 4 4 5 1 6 8 6 10 10 9 7 7 6 11 7
16 13 12 11 13 16 19 5 5 4 2 5 3 3 4 5 4 5 5 4 4 6 3 4 4 1 5 7 3 3 5 9 2 4 6 7 9 2 2 5 8 11 11 9 10
15 13 11 11 13 16 9 4 3 1 7 9 5 6 9 3 4 6 2 4 3 3 3 5 1 5 1 4 3 2 6 4 5 6 7 7 10 9 8 8 14 17 14 10 6
15 13 11 11 13 4 10 3 4 11 2 6 5 5 4 9 6 8 7 3 3 2 4 3 4 3 3 3 4 4 4 6 7 9 7 7 6 4 2 4 1 4 3 2 4
14 12 9 10 2 9 6 14 26 4 4 5 3 5 5 6 2 10 10 6 1 6 6 2 1 4 4 4 6 3 6 13 19 4 3 1 0 2 0 6 4 3 2 2 3
13 11 7 6 9 4 9 28 3 4 4 3 3 1 2 8 3 2 3 5 4 2 4 2 1 5 4 4 2 2 6 19 7 7 6 6 4 2 1 5 6 6 6 5 7
12 9 6 4 7 5 19 20 3 6 2 5 2 4 5 1 1 4 4 6 4 4 5 2 3 4 1 3 1 10 19 11 5 4 4 3 3 3 1 3 4 5 10 7 7
11 7 4 6 3 12 22 4 5 3 5 7 2 2 7 6 7 4 5 7 3 3 4 5 5 1 4 3 4 6 4 1 2 5 0 5 4 5 4 3 4 7 8 6 5
10 7 5 10 9 13 7 5 2 2 4 5 5 2 5 6 7 7 4 6 6 5 4 3 6 6 11 4 2 4 4 4 4 3 2 5 2 4 4 1 1 1 4 5 6
8 4 5 3 1 2 5 4 4 3 5 5 6 7 3 4 8 6 5 3 4 6 3 4 3 2 8 4 3 4 5 3 7 3 3 2 1 6 3 2 2 4 0 4 6
5 5 4 2 5 5 5 3 3 5 3 2 3 6 3 4 5 4 3 4 4 6 1 1 5 6 3 7 7 5 2 1 3 4 3 1 0 3 6 4 3 4 6 7 7
2 3 3 9 4 5 2 5 4 7 2 4 2 4 3 3 5 3 3 2 3 2 7 3 4 6 5 5 4 5 4 5 5 3 4 4 2 5 3 3 3 7 8 8 9
2 3 6 10 4 1 1 2 6 6 8 7 6 6 5 5 5 4 4 3 5 1 5 5 5 3 2 4 2 4 3 3 4 0 2 3 2 5 4 5 4 6 7 7 5
2 2 6 2 3 2 5 3 4 9 5 6 6 5 4 3 5 2 3 4 9 4 3 2 2 3 6 6 8 6 5 4 5 3 2 3 3 7 8 7 7 7 7 6 5
2 2 4 4 1 4 1 4 4 7 6 6 4 4 5 8 6 3 3 8 5 5 9 8 3 5 4 4 2 4 6 5 6 4 1 2 4 12 13 10 11 15 12 5 3
2 1 2 1 2 4 3 2 5 5 5 7 8 5 5 3 5 4 4 3 7 8 6 6 6 4 6 9 10 6 9 11 7 1 4 1 4 6 12 11 13 12 12 10 8
1 3 3 2 2 3 2 1 8 4 5 3 7 3 5 2 4 4 5 3 2 6 5 4 3 5 7 11 13 10 7 9 9 6 5 4 3 2 6 6 11 9 11 10 11
1 2 4 2 1 3 1 2 3 5 9 6 6 7 7 3 5 4 5 5 5 6 2 4 4 3 3 3 6 7 4 8 5 5 1 3 4 4 4 4 5 7 8 10 11
Wind_Direction
347 347 343 341 343 346 346 340 326 350 356 347 347 349 343 334 336 271 227 176 156 163 143 138 168 153 134 96 108 123 70 77 175 152 201 150 125 56 76 100 65 38 71 120 132
348 349 347 347 350 355 347 341 339 353 2 346 347 347 340 332 332 245 186 147 129 146 162 120 34 142 129 131 118 92 94 162 173 202 166 144 115 132 128 122 114 97 98 124 129
348 350 351 347 349 351 340 342 349 352 359 347 345 342 334 329 19 245 192 159 145 136 88 103 159 71 61 16 44 92 127 168 200 154 127 96 106 117 125 113 152 140 138 156 149
349 349 350 346 340 339 339 342 350 355 355 347 341 338 339 57 131 159 158 162 154 150 148 128 74 39 81 60 320 90 86 202 160 143 108 93 103 96 93 162 122 111 140 140 129
347 345 345 340 334 337 340 342 356 350 349 343 338 342 355 25 250 169 164 164 163 157 173 152 109 128 113 108 76 68 74 19 70 78 71 85 86 119 108 99 117 121 130 133 127
345 343 340 335 334 338 339 347 354 339 338 340 331 340 360 49 209 183 184 168 168 169 181 136 121 122 86 73 75 130 95 80 55 75 120 118 141 115 173 146 121 120 130 140 136
343 340 336 336 334 338 341 349 339 325 327 330 322 337 71 223 238 182 193 199 188 193 166 196 145 72 129 91 140 134 108 46 36 117 85 159 63 117 120 111 126 142 145 159 150
342 336 334 335 334 338 343 340 322 310 315 317 320 79 245 336 250 185 200 232 230 218 201 148 115 100 88 73 47 124 110 145 27 156 212 282 144 147 156 155 158 159 158 193 195
340 336 332 336 332 336 339 325 307 299 301 298 344 30 304 2 194 225 224 245 134 123 123 130 66 87 77 98 38 5 233 99 113 339 136 108 129 186 154 176 175 154 149 287 288
339 334 329 334 332 334 334 316 302 299 83 78 321 12 297 199 243 229 238 247 71 97 72 182 73 108 66 114 197 206 228 107 134 233 84 96 101 170 182 196 179 100 164 213 243
336 330 329 332 328 333 342 340 2 18 3 218 212 200 276 317 306 256 222 177 80 72 121 2 65 220 238 214 224 191 121 108 83 207 86 92 113 111 236 247 204 144 237 223 227
334 329 331 330 326 339 356 95 168 122 302 233 234 274 259 118 346 299 284 102 104 258 100 37 171 267 220 214 243 104 113 84 48 105 94 112 82 66 77 90 131 178 188 215 212
334 331 333 326 333 333 323 259 355 331 185 294 194 201 215 143 210 261 166 139 175 248 71 127 230 98 53 347 345 301 135 171 136 85 71 137 67 75 66 25 222 170 193 187 211
335 331 332 325 356 320 301 341 328 166 65 282 232 266 130 122 265 210 199 129 353 212 137 144 260 185 173 172 161 284 115 128 140 126 105 91 73 41 345 331 303 239 248 232 245
334 326 333 332 309 294 317 332 13 127 68 273 239 273 127 155 197 349 158 64 160 128 104 243 92 32 31 316 120 268 99 150 151 97 115 12 86 272 90 301 273 241 261 250 243
329 322 326 320 284 285 330 332 132 42 312 322 249 190 131 283 317 62 61 54 111 87 19 150 69 58 241 297 294 111 85 72 46 70 60 295 117 313 243 283 288 230 239 226 230
322 309 285 261 269 324 333 23 41 112 317 339 324 332 63 357 35 74 61 37 64 101 7 19 35 328 355 48 354 96 90 23 318 29 173 348 57 238 288 245 237 245 242 230 223
315 297 266 251 278 322 358 52 120 245 265 273 303 155 138 125 17 15 67 46 3 55 68 79 1 13 323 27 296 21 121 153 248 165 193 353 24 272 228 307 351 329 242 209 205
316 302 274 251 283 12 65 68 211 213 262 335 354 53 34 72 124 72 47 23 23 2 125 129 80 287 24 11 40 325 49 151 108 64 83 266 312 329 19 245 38 19 68 221 198
323 315 267 146 131 61 70 238 239 210 274 61 74 42 40 20 91 90 51 325 340 18 195 128 123 19 10 19 14 75 300 173 24 132 132 324 309 247 335 348 206 215 248 236 234
340 47 16 156 140 49 130 238 273 261 170 90 110 71 38 103 66 78 20 264 321 8 58 72 78 332 51 18 307 341 8 50 107 88 144 168 259 215 266 297 205 243 248 231 232
50 77 30 154 55 32 243 264 328 339 39 32 71 57 47 47 51 77 100 34 352 68 42 1 102 81 119 295 283 115 67 91 110 182 45 106 276 330 238 257 235 242 257 253 252
64 261 38 152 116 307 300 322 6 26 24 35 41 64 33 67 99 63 110 0 22 57 126 152 97 95 332 354 4 31 349 95 100 77 24 107 256 358 1 322 358 339 335 326 9
69 48 340 51 95 124 339 348 32 345 50 47 44 53 55 29 21 124 89 25 39 57 68 89 80 143 150 175 133 34 16 17 90 82 158 22 26 359 2 11 10 2 357 43 115
53 253 191 200 333 157 118 7 68 29 32 22 19 56 105 70 46 66 75 76 24 354 40 96 81 73 71 96 86 64 61 50 58 134 107 175 75 357 16 34 22 352 358 1 8
90 86 24 14 95 41 68 0 75 30 28 4 103 11 48 93 183 143 126 97 160 11 59 15 120 106 80 91 82 66 39 50 36 30 59 77 72 24 23 61 31 354 12 339 350
357 83 112 257 63 44 208 94 102 119 31 46 123 96 86 118 86 69 72 82 137 126 100 84 120 84 174 132 113 48 41 89 80 37 39 29 354 323 328 27 23 323 345 346 344